Regional Weather Roundup
Issued by NWS

Home | Current Version | Previous Version | Text Only | Print | Product List | Glossary On
Versions: 1 2 3 4 5 6 7 8 9 10 11 12 13 14 15 16 17 18 19 20 21 22 23 24 25 26 27 28 29 30 31 32 33 34 35 36 37 38 39 40 41 42 43 44 45 46 47 48 49 50
000
ASUS43 KDTX 020510
RWRMI
MICHIGAN HOURLY REGIONAL WEATHER ROUNDUP
NATIONAL WEATHER SERVICE DETROIT/PONTIAC MI
100 AM EDT TUE SEP 02 2014

NOTE: "FAIR" INDICATES FEW OR NO CLOUDS BELOW 12,000 FEET WITH NO
SIGNIFICANT WEATHER AND/OR OBSTRUCTION TO VISIBILITY.

MIZ047>049-052>055-059>063-066>070-074>076-081>083-020600-
SOUTHEAST LOWER MICHIGAN

CITY           SKY/WX    TMP DP  RH WIND       PRES   REMARKS
ADRIAN         CLEAR     70  68  93 W5        29.88R
ALMA           PTCLDY    68  65  91 S6        29.82R
BAD AXE        CLEAR     69  69 100 SW5       29.79F
DETROIT CITY   PTCLDY    75  70  84 SW6       29.84F
DETROIT        MOCLDY    72  69  90 S7        29.86R
FLINT          CLEAR     71  66  84 SW6       29.83S
GROSSE ILE     CLEAR     73  70  88 SW3       29.85R
HILLSDALE      CLEAR     71  69  92 SW3       29.88F
HOWELL         CLEAR     69  68  96 SW6       29.85R

CITY           SKY/WX    TMP DP  RH WIND       PRES   REMARKS
JACKSON        CLEAR     71  67  87 SW6       29.86S
LAMBERTVILLE   PTCLDY    75  68  78 SW9       29.88R
LANSING        CLOUDY    72  65  78 SW13      29.83S
LAPEER         NOT AVBL
MASON          CLEAR     69  66  90 S3        29.85R
MONROE         CLEAR     73  70  88 SW12      29.85R
MT. CLEMENS    CLEAR     71  71 100 SW5       29.83S
PONTIAC        CLEAR     70  67  90 S3        29.84S
PORT HOPE        N/A     71  67  87 VRB6      29.76S
PORT HURON     PTCLDY    68  68 100 CALM      29.83F FOG
TRI CITIES     PTCLDY    70  66  87 SW7       29.80S
YPSILANTI      CLEAR     74  68  81 S8        29.86S
$$
MIZ043>046-050>051-056>058-064>065-071>073-077>080-020600-
SOUTHWEST LOWER MICHIGAN

CITY           SKY/WX    TMP DP  RH WIND       PRES   REMARKS
BATTLE CREEK   PTCLDY    72  65  78 SW13      29.85S
BENTON HARBOR  CLOUDY    73  66  78 SW16G25   29.85R
BIG RAPIDS     PTCLDY    65  65 100 CALM      29.80R
COLDWATER      PTCLDY    71  67  89 SW8       29.86F
HOLLAND        CLOUDY    72  68  87 SW7       29.84R
GRAND RAPIDS   CLOUDY    72  70  93 SW10      29.83R
KALAMAZOO      MOCLDY    71  65  81 SW7       29.85R
MARSHALL       PTCLDY    69  67  93 SW6       29.86R
MUSKEGON       CLEAR     70  62  76 W8        29.81R
$$
MIZ016>042-020600-
NORTHERN LOWER MICHIGAN

CITY           SKY/WX    TMP DP  RH WIND       PRES   REMARKS
ALPENA         CLEAR     67  65  93 SW5       29.74S
BEAVER ISLAND  PTCLDY    63  62  96 CALM      29.75S
BELLAIRE       PTCLDY    65  63  94 CALM      29.76R FOG
CADILLAC       PTCLDY    62  62 100 SW3       29.80R
CHARLEVOIX     CLOUDY    67  65  92 W8        29.78S
FRANKFORT      MOCLDY    69  63  82 W5        29.78R
GAYLORD        MOCLDY    64  63  96 SW5       29.78R
GRAYLING       PTCLDY    64  64 100 CALM      29.79S
HARBOR SPRINGS PTCLDY    66  64  93 CALM      29.75S
HOUGHTON LAKE  CLEAR     67  64  90 W7        29.80R
MANISTEE       CLEAR     66  63  88 W10       29.79R
OSCODA         CLEAR     67  66  97 SW6       29.76R
PELLSTON       PTCLDY    65  63  93 W3        29.75R
TRAVERSE CITY  CLEAR     67  64  90 SW5       29.75R
$$
MIZ007>008-015-020600-
EASTERN UPPER MICHIGAN

CITY           SKY/WX    TMP DP  RH WIND       PRES   REMARKS
KINROSS        PTCLDY    63  63 100 SW3       29.73S
MACKINAC ISLAN CLOUDY    64  64 100 W8        29.74S FOG
NEWBERRY       PTCLDY    58  58  98 SW8G16    29.73S
S. S. MARIE    MOCLDY    61  59  93 SW6       29.71S
$$
MIZ004>006-011>014-085-020600-
CENTRAL UPPER MICHIGAN

CITY           SKY/WX    TMP DP  RH WIND       PRES   REMARKS
MANISTIQUE     CLEAR     60  58  94 W3        29.74R
ESCANABA         N/A     57  54  88 CALM      29.74F VSB 1/2
MENOMINEE      CLEAR     61  57  88 CALM      29.77R
SAWYER-GWINN   CLEAR     58  55  90 W5        29.74S
$$
MIZ001>003-009>011-084-020600-
WESTERN UPPER MICHIGAN

CITY           SKY/WX    TMP DP  RH WIND       PRES   REMARKS
IRON MOUNTAIN  CLEAR     56  54  93 CALM      29.75S
HOUGHTON       CLEAR     59  55  87 W10       29.71R
COPPER HARBOR    N/A     64  55  72 NW7       29.68R
$$

ABBREVIATIONS USED IN REMARKS
   TC - TEMPERATURE IN CELSIUS
  WCI - WIND CHILL INDEX
   HX - HEAT INDEX
  VSB - VISIBILITY




USA.gov is the U.S. government's official web portal to all federal, state and local government web resources and services.